Weather History for In Amenas, Algeria

Change the Weather History Date:

Monday, February 18, 2013

  Actual Average Record
Temperature  
Mean Temperature 54 °F -  
Max Temperature 73 °F 74 °F - ()
Min Temperature 36 °F 45 °F - ()
Degree Days  
Heating Degree Days 10    
Growing Degree Days 4 (Base 50)    
Moisture  
Dew Point 12 °F    
Average Humidity 18    
Maximum Humidity 36    
Minimum Humidity 4    
Precipitation  
Precipitation 0.00 in 0.00 in - ()
Sea Level Pressure  
Sea Level Pressure 30.00 in    
Wind  
Wind Speed 6 mph ()    
Max Wind Speed 10 mph    
Max Gust Speed -    
Visibility 6.0 miles    
Events      
T = Trace of Precipitation, MM = Missing Value Source: Averaged Metar Reports

Daily Weather History Graph

Daily Weather History Graph

Search for Another Location

Airport:

Trip Planner

Search our weather history database for the weather conditions in past years. The results will help you decide how hot, cold, wet, or windy it might be!

Date:

Astronomy

Feb. 18, 2013 Rise Set
Actual Time 6:56 AM CET 6:14 PM CET
Civil Twilight 6:32 AM CET 6:38 PM CET
Nautical Twilight 6:05 AM CET 7:05 PM CET
Astronomical Twilight 5:37 AM CET 7:33 PM CET
Moon 12:02 PM CET (2/18) 1:08 AM CET (2/18)
Length of Visible Light 12h 05m
Length of Day
11h 18m
First Quarter, 56% of the Moon is Illuminated
Feb 18
First Quarter
Feb 25
Full
Mar 4
Last Quarter
Mar 11
New
Mar 19
First Quarter

Hourly Weather History & Observations

Time (CET) Temp. Windchill Dew Point Humidity Pressure Visibility Wind Dir Wind Speed Gust Speed Precip Events Conditions
12:00 AM 46.4 °F 43.5 °F 10.4 °F 23% 30.01 in - ENE 5.8 mph - N/A   Clear
1:00 AM 44 °F - 12 °F 15% 30.03 in 6 mi NNE 8.1 mph - -  
2:00 AM 44.6 °F 40.2 °F 12.2 °F 27% 29.98 in - NE 8.1 mph - N/A   Clear
3:00 AM 42.8 °F 38.0 °F 12.2 °F 29% 29.98 in - NE 8.1 mph - N/A   Clear
4:00 AM 40 °F - 11 °F 18% 30.04 in 6 mi North 9.2 mph - -  
4:00 AM 41.0 °F 35.2 °F 12.2 °F 31% 29.98 in - North 9.2 mph - N/A   Clear
5:00 AM 39.2 °F 37.0 °F 10.4 °F 31% 29.98 in - NE 3.5 mph - N/A   Clear
6:00 AM 37.4 °F 32.8 °F 10.4 °F 33% 29.98 in - NNE 5.8 mph - N/A   Clear
7:00 AM 37 °F - 11 °F 21% 30.07 in 6 mi North 10.4 mph - -  
7:00 AM 37.4 °F 30.3 °F 12.2 °F 36% 30.01 in - North 10.4 mph - N/A   Clear
8:00 AM 41.0 °F 36.4 °F 12.2 °F 31% 30.01 in - NNE 6.9 mph - N/A   Clear
9:00 AM 46.4 °F - 14.0 °F 27% 30.01 in - NE 2.3 mph - N/A   Clear
10:00 AM 56 °F - 17 °F 11% 30.02 in 6 mi ENE 4.6 mph - -   Clear
10:00 AM 55.4 °F - 17.6 °F 23% 30.04 in - ENE 4.6 mph - N/A   Clear
11:00 AM 62.6 °F - 17.6 °F 18% 30.04 in - East 4.6 mph - N/A   Clear
12:00 PM 66.2 °F - 17.6 °F 15% 30.04 in - Calm Calm - N/A   Clear
1:00 PM 69 °F - 18 °F 6% 29.96 in 6 mi Calm Calm - -   Scattered Clouds
1:00 PM 68.0 °F - 17.6 °F 15% 30.01 in - Calm Calm - N/A   Clear
2:00 PM 71.6 °F - 15.8 °F 12% 30.01 in - Calm Calm - N/A   Clear
3:00 PM 73.4 °F - 12.2 °F 10% 29.98 in - West 6.9 mph - N/A   Clear
4:00 PM 73 °F - 13 °F 4% 29.91 in 6 mi SW 4.6 mph - -  
4:00 PM 73.4 °F - 14.0 °F 10% 29.98 in - SW 4.6 mph - N/A   Clear
5:00 PM 71.6 °F - 12.2 °F 10% 29.98 in - West 6.9 mph - N/A   Clear
6:00 PM 71.6 °F - 12.2 °F 10% 29.98 in - West 9.2 mph - N/A   Clear
7:00 PM 64 °F - 9 °F 4% 29.95 in 6 mi NW 9.2 mph - -  
7:00 PM 64.4 °F - 8.6 °F 11% 29.98 in - NW 9.2 mph - N/A   Clear
8:00 PM 60.8 °F - 8.6 °F 13% 30.01 in - West 6.9 mph - N/A   Clear
9:00 PM 53.6 °F - 3.2 °F 13% 30.01 in - North 9.2 mph - N/A   Clear
10:00 PM 53 °F - 3 °F 5% 30.02 in 6 mi NNW 8.1 mph - -  
10:00 PM 51.8 °F - 5.0 °F 15% 30.01 in - NNW 8.1 mph - N/A   Clear
11:00 PM 48.2 °F - 3.2 °F 16% 30.01 in - NNE 8.1 mph - N/A   Clear